Location: Mour�de
(43.8036°N, 0.2932°E)
Time: 03:34:49
(UTC+00:00)

Daily predictions for brighter satellites

Satellite Brightness Start Highest point End
(mag) Time Altitude Azimuth Time Altitude Azimuth Time Altitude Azimuth
ATLAS 2AS CENTAUR R/B 4.1 03:10:56 34° NNE 03:11:20 34° NE 03:17:51 10° E
ATLAS CENTAUR R/B 4.4 03:23:57 16° E 03:23:57 16° E 03:26:20 10° ENE
Cosmos 2082 Rocket 4.3 03:44:43 17° NNE 03:44:43 17° NNE 03:46:02 10° NNE
USA 234 4.5 03:35:12 10° NE 03:39:23 30° N 03:39:23 30° N
Lacrosse 5 4.1 03:48:48 18° NNE 03:48:48 18° NNE 03:50:15 10° NE
CZ-2C R/B 3.3 04:01:17 10° NNE 04:05:11 43° ENE 04:05:11 43° ENE
Cosmos 2360 Rocket 4.0 04:05:07 16° N 04:08:32 26° NE 04:13:15 10° ESE
CZ-3B R/B 4.2 04:13:01 14° SSW 04:14:11 15° S 04:17:27 10° SSE
SL-16 R/B 2.6 04:13:13 50° NNE 04:14:19 60° ENE 04:19:54 10° SE
Cosmos 1980 Rocket 4.4 04:19:42 12° S 04:19:42 12° S 04:20:03 10° S
ASTEX 1 4.0 04:11:34 10° SSE 04:15:21 51° SE 04:15:21 51° SE
Cosmos 2100 Rocket 4.4 04:14:32 10° S 04:20:36 62° E 04:26:39 10° NNE
Cosmos 2322 Rocket 2.7 04:19:20 40° N 04:21:11 58° ENE 04:26:46 10° SE
Cosmos 1447 Rocket 4.4 04:21:34 73° SW 04:21:34 73° SW 04:27:31 10° S
SJ 16-02 3.8 04:25:39 12° NNE 04:25:39 12° NNE 04:26:01 10° NNE
Cosmos 1766 Rocket 4.5 04:18:07 10° SSE 04:22:14 46° E 04:26:25 10° NNE
NOSS 3-4 (A) 4.3 04:19:35 31° NNW 04:22:59 57° NE 04:30:30 10° SE
NOSS 3-4 (C) 4.3 04:19:40 31° NNW 04:23:05 57° NE 04:30:35 10° SE
COSMOS 2487 4.3 04:29:40 30° E 04:29:40 30° E 04:32:19 10° NE
STARLINK-69 4.5 04:30:31 47° ENE 04:30:31 47° ENE 04:33:35 10° ENE
NOSS 3-3 (A) 4.1 04:31:17 54° NW 04:31:17 54° NW 04:37:32 10° NNE
STARLINK-66 4.4 04:32:01 50° ENE 04:32:01 50° ENE 04:35:09 10° ENE
NOSS 3-3 (C) 4.1 04:31:22 54° NW 04:31:22 54° NW 04:37:38 10° NNE
STARLINK-41 4.3 04:33:39 52° ENE 04:33:39 52° ENE 04:36:53 10° ENE
Okean 3 Rocket 4.5 04:35:38 39° NNE 04:35:38 39° NNE 04:38:29 10° N
STARLINK-64 4.2 04:35:18 54° ENE 04:35:18 54° ENE 04:38:33 10° ENE
COSMO-SKYMED 1 4.1 04:31:25 10° SE 04:35:21 35° ENE 04:39:19 10° N
STARLINK-70 4.1 04:36:47 57° ENE 04:36:47 57° ENE 04:40:09 10° ENE
STARLINK-68 4.1 04:38:37 58° NE 04:38:37 58° NE 04:41:59 10° NE
STARLINK-58 4.0 04:39:49 60° ENE 04:39:49 60° ENE 04:43:16 10° NE
Cosmos 1802 Rocket 4.3 04:34:16 10° S 04:40:38 68° E 04:46:59 10° NNE
STARLINK-62 3.9 04:41:47 62° NE 04:41:47 62° NE 04:45:17 10° NE
STARLINK-63 3.8 04:43:16 66° NE 04:43:16 66° NE 04:46:52 10° NE
STARLINK 3.7 04:44:31 72° ENE 04:44:31 72° ENE 04:48:15 10° NE
Cosmos 2298 Rocket 4.2 04:40:16 10° S 04:45:32 72° ESE 04:50:51 10° NNE
STARLINK-72 3.7 04:46:20 72° NE 04:46:20 72° NE 04:50:06 10° NE
Cosmos 1153 Rocket 4.5 04:47:52 47° WSW 04:48:50 52° WNW 04:54:50 10° N
STARLINK-59 3.6 04:49:40 72° NNE 04:49:40 72° NNE 04:53:31 10° NE
Cosmos 2173 Rocket 3.9 04:43:25 10° S 04:49:40 86° W 04:55:53 10° N
STARLINK-57 3.6 04:51:14 73° N 04:51:14 73° N 04:55:10 10° NE
STARLINK-28 3.5 04:54:27 72° NNW 04:54:27 72° NNW 04:58:29 10° NE
MSX 4.2 04:49:56 10° N 04:54:52 42° NW 04:54:52 42° NW
STARLINK-75 3.6 04:55:52 64° NNW 04:55:52 64° NNW 04:59:50 10° NE
COBE Rocket 3.8 04:50:46 10° S 04:55:54 84° WSW 05:00:57 10° NNW
Lacrosse 5 rocket 3.0 04:55:24 18° N 04:55:59 19° NNE 04:58:38 10° ENE
STARLINK-53 3.5 04:56:15 70° NNW 04:56:15 70° NNW 05:00:22 10° NE
COSMOS 2455 2.8 04:54:46 43° WNW 04:56:27 59° WSW 05:02:18 10° SSE
STARLINK-54 3.5 04:57:37 69° NW 04:57:38 69° NNW 05:01:47 10° NE
Cosmos 2219 Rocket 4.2 04:53:28 10° N 04:57:55 23° NE 05:02:22 10° ESE
Cosmos 2061 Rocket 4.0 04:53:53 10° S 05:00:07 83° E 05:06:21 10° N
ATLAS CENTAUR R/B 1.6 05:00:15 42° SW 05:01:50 72° NW 05:06:38 10° NNE
Cosmos 1825 2.6 04:58:15 10° S 05:01:57 60° E 05:05:41 10° NNE
STARLINK-37 3.6 05:02:20 62° NW 05:02:33 63° NNW 05:06:43 10° NE
Cosmos 2333 Rocket 4.1 04:57:50 10° N 05:02:38 26° NE 05:07:24 10° ESE
STARLINK-55 3.5 05:02:24 63° NW 05:02:38 65° NNW 05:06:46 10° NE
ATLAS 2AS CENTAUR R/B 2.8 04:58:26 26° NW 05:03:01 73° WSW 05:09:57 10° SSE
STARLINK-34 3.6 05:04:04 60° NW 05:04:21 62° NNW 05:08:28 10° NE
STARLINK-24 3.6 05:05:11 58° WNW 05:05:32 61° NNW 05:09:39 10° NE
STARLINK-81 3.5 05:05:23 60° WNW 05:05:49 65° NNW 05:09:56 10° NE
Cosmos 1151 Rocket 2.9 05:03:36 14° N 05:07:25 88° W 05:11:45 10° S
STARLINK-77 3.6 05:08:33 55° WNW 05:09:07 62° NNW 05:13:14 10° NE
STARLINK-25 3.6 05:10:10 52° WNW 05:10:49 60° NNW 05:14:56 10° NE
STARLINK-71 3.7 05:12:04 49° WNW 05:12:41 55° NNW 05:16:46 10° NE
Cosmos 1484 Rocket 2.7 05:09:48 10° N 05:13:51 85° W 05:17:51 10° SSW
STARLINK-79 3.7 05:13:21 48° WNW 05:14:07 57° NNW 05:18:13 10° NE
STARLINK-46 4.1 05:14:06 30° N 05:14:25 31° NNE 05:17:08 10° E
Cosmos 2228 Rocket 4.1 05:10:46 10° N 05:15:14 49° ENE 05:19:40 10° SSE
Okean O Rocket 2.8 05:11:08 10° NNE 05:15:18 44° E 05:19:27 10° S
STARLINK-78 3.7 05:14:59 46° WNW 05:15:48 56° NNW 05:19:54 10° NE
BREEZE-M DEB (TANK) 3.0 05:17:34 23° NNE 05:17:34 23° NNE 05:18:52 10° NE
Cosmos 1328 Rocket 3.4 05:15:22 17° NNW 05:18:33 61° W 05:22:47 10° S
STARLINK-49 3.8 05:18:09 42° WNW 05:19:07 53° NNW 05:23:12 10° NE
Cosmos 1937 Rocket 4.4 05:20:26 27° NW 05:20:26 27° NW 05:24:24 10° N
SL-4 R/B 2.4 05:18:09 35° WNW 05:20:04 69° SW 05:24:51 10° SE
ALOS 2.7 05:15:52 10° NNE 05:20:32 65° E 05:25:09 10° S
STARLINK-27 3.8 05:19:44 40° WNW 05:20:46 52° NNW 05:24:50 10° NE
STARLINK-74 3.8 05:21:20 39° WNW 05:22:27 51° NNW 05:26:31 10° NE
USA 234 4.5 05:17:26 10° ENE 05:22:48 28° N 05:26:43 16° NW
SKYMED 2 3.4 05:19:04 10° S 05:23:23 73° WSW 05:27:45 10° NNW
Cosmos 1515 Rocket 3.4 05:19:09 10° N 05:23:31 88° WSW 05:27:50 10° S
STARLINK-39 3.9 05:22:57 37° WNW 05:24:08 50° NNW 05:28:11 10° NE
Cosmos 1238 Rocket 4.4 05:19:09 10° S 05:25:36 66° E 05:31:23 10° NNE
Cosmos 2082 Rocket 4.1 05:26:35 12° NNW 05:26:35 12° NNW 05:28:11 10° NNW
STARLINK 3.9 05:24:36 36° WNW 05:25:51 48° NNW 05:29:54 10° NE
STARLINK-42 4.0 05:25:16 35° WNW 05:26:30 47° NNW 05:30:31 10° NE
Cosmos 1743 Rocket 3.6 05:23:17 10° S 05:27:36 79° E 05:31:56 10° N
PAYLOAD B 4.3 05:23:47 10° NNE 05:29:19 81° ESE 05:34:48 10° SSW
STARLINK-21 4.0 05:28:03 33° WNW 05:29:27 46° NNW 05:33:29 10° NE
Cosmos 1459 Rocket 4.2 05:23:35 10° SSW 05:29:28 44° WNW 05:35:29 10° N
Lacrosse 5 3.5 05:28:01 16° NNW 05:29:42 19° N 05:33:19 10° NE
STARLINK-45 4.1 05:29:58 31° WNW 05:31:21 42° NNW 05:35:19 10° NE
Cosmos 1408 3.0 05:27:56 10° SSW 05:31:23 38° WNW 05:34:50 10° N
Cosmos 2151 3.9 05:33:07 27° WNW 05:33:07 27° WNW 05:36:44 10° NNW
Meteor 1-26 Rocket 4.5 05:27:20 10° N 05:33:02 71° E 05:38:32 10° SSE
STARLINK-76 4.1 05:32:35 29° WNW 05:34:11 44° NNW 05:38:10 10° NE
Cosmos 1400 Rocket 3.1 05:30:59 10° N 05:35:02 69° ENE 05:39:01 10° SSE
STARLINK 4.1 05:34:08 28° WNW 05:35:49 43° NNW 05:39:47 10° NE
CZ-4B DEB 4.1 05:30:24 10° NNE 05:35:53 80° WNW 05:41:23 10° SSW
STARLINK-32 4.1 05:35:44 27° WNW 05:37:29 42° NNW 05:41:27 10° NE
Helios 1A Rocket 3.0 05:34:38 10° NNE 05:38:45 81° ESE 05:42:49 10° SSW
STARLINK-40 4.1 05:37:22 26° WNW 05:39:10 41° NNW 05:43:07 10° NE
Meteor PRIRODA 4.4 05:36:41 10° N 05:39:55 30° WNW 05:43:06 10° SW
Cosmos 1125 Rocket 3.4 05:34:46 10° SSW 05:40:03 79° WNW 05:45:21 10° NNE
Gbstr 26 Del rocket 4.0 05:38:46 20° NW 05:40:10 25° N 05:43:18 10° NE
STARLINK-44 4.2 05:38:56 25° WNW 05:40:48 40° NNW 05:44:45 10° NE
Cosmos 1725 Rocket 4.0 05:35:56 10° SSW 05:42:09 64° W 05:48:25 10° N
Cosmos 2016 Rocket 4.1 05:36:17 10° SSW 05:42:21 51° WNW 05:48:32 10° N
STARLINK-36 4.2 05:40:33 24° WNW 05:42:31 40° NNW 05:46:27 10° NE
Cosmos 1408 Rocket 4.0 05:38:46 10° SW 05:42:45 35° WNW 05:46:46 10° N
STARLINK-67 3.4 05:42:35 29° WSW 05:43:04 32° SW 05:45:29 10° SSE
Cosmos 2237 4.2 05:37:37 10° NNW 05:43:19 68° WSW 05:48:57 10° SSE
CZ-2C R/B 3.5 05:40:18 10° NNW 05:43:50 21° WNW 05:44:32 20° WNW
Cosmos 2150 Rocket 4.5 05:40:38 10° SW 05:45:44 40° WNW 05:50:50 10° N
STARLINK-35 4.3 05:46:55 21° WNW 05:49:10 37° NNW 05:53:02 10° NE
Cosmos 1500 Rocket 3.5 05:45:57 10° SSW 05:50:23 66° W 05:54:49 10° N
STARLINK-51 4.3 05:48:32 20° WNW 05:50:52 36° NNW 05:54:44 10° NE
STARLINK-30 4.4 05:50:09 19° WNW 05:52:33 36° NNW 05:56:25 10° NE
Cosmos 2360 Rocket 2.4 05:47:20 10° NNW 05:52:51 54° WSW 05:58:21 10° S
STARLINK-26 4.5 05:51:04 19° WNW 05:53:21 33° NNW 05:57:04 10° NE
STARLINK-33 4.4 05:51:46 19° WNW 05:54:14 35° NNW 05:58:05 10° NE
COSMOS 2428 3.4 05:49:09 10° NNW 05:54:47 56° ENE 06:00:24 10° SE
STARLINK-50 4.4 05:53:20 18° WNW 05:55:53 35° NNW 05:59:43 10° NE
Cosmos 1833 4.2 05:50:34 10° SW 05:56:06 59° WNW 06:01:40 10° NNE
Abrixas rocket 2.6 05:55:29 20° WNW 05:57:09 40° NNW 06:00:02 10° ENE
NOAA 6 3.9 05:52:05 10° N 05:57:13 77° WNW 06:02:19 10° SSW
Cosmos 2237 Rocket 4.1 05:52:58 10° N 05:57:42 26° NE 06:02:23 10° ESE
Sich 1 4.3 05:53:47 10° SSE 05:57:50 45° E 06:01:56 10° NNE
SL-16 R/B 3.4 05:55:10 15° WNW 05:57:54 21° W 06:02:00 10° SSW
STARLINK-56 4.5 05:56:36 17° WNW 05:59:17 34° NNW 06:03:06 10° NE
Starlink (trailer) 4.5 05:58:23 16° WNW 06:01:09 33° NNW 06:04:57 10° NE
COSMOS 2487 4.0 06:03:23 15° W 06:04:25 16° WNW 06:06:41 10° NNW
Cosmos 2322 Rocket 3.4 06:01:13 12° WNW 06:04:45 22° W 06:08:56 10° SSW
Tsikada Rocket 4.3 06:03:19 10° NNW 06:09:20 45° W 06:15:16 10° SSW
Cosmos 972 Rocket 4.1 06:05:42 10° SSW 06:10:44 58° WNW 06:16:19 10° NNE
COSMO-SKYMED 1 3.8 06:08:10 10° SW 06:11:35 22° W 06:15:02 10° NW
Radarsat Rocket 4.0 06:05:57 10° NNE 06:11:48 88° ESE 06:17:51 10° SSW
CZ-4 R/B 4.5 06:11:34 10° NE 06:13:54 15° E 06:16:11 10° SE
METEOR-M 4.5 06:11:14 10° N 06:16:15 42° WNW 06:21:14 10° SW
Cosmos 1437 4.3 06:16:37 10° WSW 06:18:29 15° WNW 06:20:23 10° NNW
Iridium 82 4.5 06:17:21 10° N 06:20:53 70° W 06:24:32 10° S
RESURS DK-1 3.5 06:17:47 10° NNW 06:21:45 42° ENE 06:25:41 10° SE
FENGYUN 3A 4.1 06:18:40 10° N 06:23:40 39° WNW 06:28:37 10° SW
Meteor 2-3 Rocket 4.1 06:22:17 10° SW 06:27:43 43° WNW 06:33:14 10° N
Cosmos 1606 4.1 06:26:28 10° NW 06:29:16 20° W 06:32:04 10° SW
Exosat Rocket 4.2 06:24:07 10° NNW 06:29:46 72° WSW 06:37:33 10° SSE
Cosmos 2333 4.5 06:25:09 10° NNW 06:30:47 54° WSW 06:36:22 10° S
